Location: Unspecified
(0.0000°N, 0.0000°E)
Time: 13:03:38
(UTC+00:00)

GONETS M 09 (M19) - Visible Passes

Search period start: 25 May 2018 00:00
Search period end: 04 June 2018 00:00
Orbit: 1476 x 1512 km, 82.5° (Epoch: 24 May)

Date Brightness Start Highest point End Pass type
(mag) Time Alt. Az. Time Alt. Az. Time Alt. Az.
25 May ? 04:40:01 10° SE 04:45:04 17° E 04:50:03 10° ENE visible
25 May ? 19:07:41 10° NW 19:14:53 30° W 19:22:12 10° SSW visible
26 May ? 18:17:05 10° NNW 18:25:40 65° W 18:34:22 10° S visible
27 May ? 04:55:37 10° SSE 05:03:06 31° E 05:10:29 10° NE visible
27 May ? 19:28:20 10° WNW 19:32:56 15° W 19:37:34 10° SW visible
28 May ? 04:10:50 10° ESE 04:13:52 12° E 04:16:52 10° ENE visible
28 May ? 18:35:55 10° NNW 18:43:42 37° W 18:51:36 10° SSW visible
29 May ? 05:12:34 10° S 05:21:08 56° E 05:29:34 10° NNE visible
30 May ? 04:25:09 10° SE 04:31:55 25° E 04:38:35 10° NE visible
30 May ? 18:55:49 10° NW 19:01:44 20° W 19:07:44 10° SW visible
31 May ? 05:30:19 10° S 05:39:09 87° W 05:47:52 10° N visible
01 Jun ? 04:41:43 10° SSE 04:49:56 45° E 04:58:03 10° NNE visible
02 Jun ? 03:54:58 10° SE 04:00:43 19° E 04:06:25 10° NE visible
02 Jun ? 18:23:42 10° NW 18:30:33 26° W 18:37:29 10° SW visible
03 Jun ? 04:59:10 10° S 05:07:58 77° E 05:16:39 10° N visible
